Regional Weather Roundup
Issued by NWS

Home | Current Version | Previous Version | Graphics & Text | Print | Product List | Glossary On
Versions: 1 2 3 4 5 6 7 8 9 10 11 12 13 14 15 16 17 18 19 20 21 22 23 24 25 26 27 28 29 30 31 32 33 34 35 36 37 38 39 40 41 42 43 44 45 46 47 48 49 50
000
ASUS43 KOAX 041610
RWRNE

WEATHER ROUNDUP FOR NEBRASKA
NATIONAL WEATHER SERVICE OMAHA NE
1100 AM CDT FRI SEP 04 2015

NOTES: SATELLITE DATA IS BEING USED TO AUGMENT CLOUD COVER ABOVE
       12000 FEET.
       "FAIR" INDICATES FEW OR NO CLOUDS BELOW 12,000 FEET WITH NO
       SIGNIFICANT WEATHER AND/OR OBSTRUCTIONS TO VISIBILITY.

  * THESE STATIONS DO NOT REPORT WEATHER SUCH AS RAIN...SNOW OR FOG.

NEZ001>004-019>022-054>056-041700-
NEBRASKA PANHANDLE

CITY           SKY/WX    TMP DP  RH WIND       PRES   REMARKS
SCOTTSBLUFF    SUNNY     74  54  49 VRB3      29.93R
ALLIANCE       SUNNY     77  55  46 W6        29.91R
CHADRON        SUNNY     81  51  35 W9        29.85S
KIMBALL        SUNNY     79  48  33 W10       29.97S
SIDNEY         SUNNY     82  49  31 W13       29.95S
$$

NEZ057>060-069>072-079>082-041700-
SOUTHWEST NEBRASKA

CITY           SKY/WX    TMP DP  RH WIND       PRES   REMARKS
NORTH PLATTE   SUNNY     76  62  62 S3        29.86R
IMPERIAL       MOSUNNY   78  58  49 W7        29.90R
LEXINGTON      MOSUNNY   81  62  52 S14G20    29.85R
MCCOOK         MOSUNNY   81  62  52 W12       29.86R
OGALLALA       SUNNY     75  62  62 SW6       29.89S
$$

NEZ005>010-023>029-035>040-094-041700-
NORTH CENTRAL NEBRASKA

CITY           SKY/WX    TMP DP  RH WIND       PRES   REMARKS
VALENTINE      SUNNY     80  62  54 SW9       29.82S
AINSWORTH      SUNNY     80  65  61 S12       29.83S
BROKEN BOW     MOSUNNY   80  62  54 S13G23    29.85S
O`NEILL        MOSUNNY   82  66  59 S18G24    29.84F
ORD            MOSUNNY   81  63  54 S18G26    29.84S
THEDFORD       SUNNY     81  65  58 SW6       29.86S
$$

NEZ041-046>049-061>064-073>077-083>087-041700-
SOUTH CENTRAL NEBRASKA

CITY           SKY/WX    TMP DP  RH WIND       PRES   REMARKS
GRAND ISLAND   PTSUNNY   82  65  56 S21G31    29.87S
AURORA         MOSUNNY   82  65  55 S18G26    29.87F
HASTINGS       PTSUNNY   81  64  56 S16G26    29.87F
HEBRON         MOSUNNY   82  65  57 S18       29.90F
HOLDREGE       MOSUNNY   80  60  51 S18G26    29.86S
KEARNEY *      PTSUNNY   79  63  57 S20G25    29.86S
YORK           MOSUNNY   81  68  65 S15G23    29.89S
$$

NEZ011>018-030>034-042>045-041700-
NORTHEAST NEBRASKA

CITY           SKY/WX    TMP DP  RH WIND       PRES   REMARKS
NORFOLK        PTSUNNY   78  68  71 S15G23    29.86R
ALBION         MOSUNNY   80  66  61 S17G24    29.85F
BLAIR          CLOUDY    78  67  70 SE15      29.90F
COLUMBUS *     PTSUNNY   81  66  61 S12       29.87S
FREMONT        PTSUNNY   80  68  67 SE13G21   29.89S
TEKAMAH        CLOUDY    79  71  76 S7        29.89F
WAYNE          CLOUDY    77  71  79 S14G20    29.87S
$$

NEZ050>053-065>068-078-088>093-041700-
SOUTHEAST NEBRASKA

CITY           SKY/WX    TMP DP  RH WIND       PRES   REMARKS
LINCOLN        CLOUDY    75  68  78 S14       29.89F
OMAHA EPPLEY   CLOUDY    80  69  69 S12       29.90F
BEATRICE       PTSUNNY   80  69  70 S10       29.92F
FALLS CITY     MOSUNNY   85  70  60 S8        29.96S
NEBRASKA CITY  PTSUNNY   82  65  55 S10       29.95F
PLATTSMOUTH    CLOUDY    82  68  62 S15       29.92F
$$

NEZ044-045-051>053-067-041700-
OMAHA AREA

CITY           SKY/WX    TMP DP  RH WIND       PRES   REMARKS
OMAHA EPPLEY   CLOUDY    80  69  69 S12       29.90F
BLAIR          CLOUDY    78  67  70 SE15      29.90F
FREMONT        PTSUNNY   80  68  67 SE13G21   29.89S
MILLARD        CLOUDY    78  70  75 SE9       29.91S
OFFUTT AFB     CLOUDY    82  70  65 S14       29.90F
PLATTSMOUTH    CLOUDY    82  68  62 S15       29.92F
WAHOO          FAIR      77  70  78 SE8       29.89S
$$




USA.gov is the U.S. government's official web portal to all federal, state and local government web resources and services.